Theta_e
314 314 314 315 315 316 317 316 316 315 315 314 314 314 313 314 314 313 313 313 314 314 313 313 315 316 316 310 308 319 342 337 325 320 318 317 317 317 314 316 316 314 314 315 315 316 317
313 313 313 313 313 314 315 316 316 316 315 315 314 313 313 313 313 313 314 314 314 314 313 313 315 316 312 301 315 318 323 326 326 321 318 318 318 320 316 315 313 316 315 315 316 315 316
311 311 312 312 313 313 313 312 313 315 316 315 315 315 314 313 313 314 314 314 313 313 313 314 315 315 309 305 316 317 316 315 317 318 318 319 319 316 317 312 317 316 311 313 314 314 314
307 308 308 309 309 311 312 312 311 312 314 315 315 314 314 314 314 314 314 314 313 314 314 315 316 315 306 315 318 315 317 319 322 323 317 321 320 316 316 318 314 312 312 307 313 314 314
308 308 308 307 307 308 308 309 311 311 311 312 314 314 314 314 314 314 313 313 313 314 315 316 316 313 305 318 312 314 316 312 314 317 321 320 320 313 314 310 308 310 304 306 308 315 313
309 309 309 309 309 309 308 307 308 309 311 311 312 313 314 314 314 313 312 312 314 312 318 319 315 309 312 307 312 314 316 314 312 312 314 313 314 310 310 308 300 305 306 307 306 312 313
310 311 311 311 310 310 309 308 308 307 308 311 311 311 312 313 314 313 311 312 308 310 314 307 307 306 308 312 314 312 315 313 312 310 303 310 307 304 307 310 310 309 308 306 310 312 310
310 310 311 311 311 311 311 310 309 308 307 308 310 311 312 312 313 313 312 306 307 307 302 313 313 311 313 312 307 310 317 308 307 303 306 308 305 310 311 311 309 309 307 306 310 312 311
310 310 311 311 311 311 311 311 311 310 309 308 309 310 311 311 312 311 309 309 313 311 301 303 307 308 310 312 307 308 312 310 305 303 305 305 308 312 310 309 308 308 306 306 306 310 312
310 309 310 311 311 311 312 312 312 311 310 309 308 309 310 311 306 310 308 312 312 311 296 300 304 307 309 310 305 312 314 311 307 303 306 307 312 310 308 308 309 305 310 308 307 306 301
309 309 310 310 310 310 311 311 311 312 311 310 308 307 309 309 305 308 309 312 312 309 288 305 306 313 310 306 307 307 313 311 305 305 306 304 308 308 307 308 311 307 311 308 308 305 304
308 308 309 309 310 310 310 310 310 311 311 310 308 307 309 307 308 310 313 312 308 295 287 301 307 304 304 305 306 310 307 312 312 306 307 307 313 311 310 312 311 312 308 307 307 305 297
307 308 309 309 309 309 309 309 310 310 310 310 309 308 307 308 304 311 310 306 292 288 301 300 302 305 304 302 303 305 303 302 302 299 300 305 306 311 313 309 311 309 305 297 296 297 295
306 307 308 308 309 309 309 309 309 309 309 310 309 308 306 306 311 309 305 296 286 294 298 305 304 304 301 304 303 303 302 300 305 305 302 300 298 308 312 310 306 306 305 298 292 294 298
305 307 307 308 308 309 309 308 308 308 309 308 307 305 304 306 309 306 297 286 289 295 301 301 303 300 301 304 303 303 303 301 304 307 301 301 301 309 311 312 310 305 302 308 302 303 298
305 305 306 307 308 309 309 309 309 309 308 307 303 299 299 305 309 303 289 286 292 298 300 302 297 301 299 301 301 301 302 305 304 307 310 308 301 308 309 311 311 308 310 301 302 294 293
305 305 307 307 307 308 308 309 309 309 308 306 300 293 301 306 308 295 283 288 293 298 300 297 297 299 301 302 303 302 302 306 307 306 308 308 307 305 309 306 304 304 303 305 306 302 296
305 306 306 307 307 308 308 308 308 308 307 303 296 290 305 309 290 291 286 291 294 295 299 298 298 297 298 302 303 302 302 305 309 309 303 309 307 302 304 310 311 309 305 307 300 299 302
305 305 306 307 307 307 308 308 308 306 304 299 295 298 308 306 286 289 293 292 292 294 295 295 295 298 301 299 299 304 304 309 309 308 306 310 305 300 302 306 309 306 306 307 308 307 302
305 305 306 307 307 308 308 308 307 305 303 302 293 289 295 297 294 290 291 290 290 296 294 296 296 298 296 297 303 302 304 308 309 308 312 313 308 303 299 303 305 302 304 306 306 301 301
304 305 306 307 307 308 307 307 306 305 304 302 297 292 295 287 289 291 291 291 290 289 294 297 294 295 296 296 300 301 305 306 308 309 310 312 305 305 306 307 306 305 304 304 304 304 302
304 305 306 307 307 307 307 307 306 305 304 300 292 293 298 293 292 290 291 290 288 290 292 292 292 295 295 296 300 298 302 305 305 307 307 314 305 305 302 305 306 303 305 305 305 305 305
305 305 306 307 307 308 308 307 306 306 304 298 303 301 294 289 291 289 288 290 290 292 293 295 295 294 293 297 299 303 306 307 309 306 309 307 306 303 299 303 303 300 304 305 306 306 307
304 305 306 307 307 308 308 307 307 306 304 304 302 302 290 288 289 290 291 291 291 292 291 295 297 294 299 303 303 305 305 306 309 309 312 310 308 305 300 302 293 304 310 309 307 308 309
304 306 306 306 307 308 308 307 305 305 305 304 302 297 294 289 292 291 291 292 294 294 294 295 298 301 303 299 295 295 299 301 304 307 308 313 310 301 299 299 301 304 307 307 305 305 311
304 305 306 306 307 308 308 307 306 306 306 304 306 303 297 291 292 294 293 294 291 292 294 296 301 305 301 295 292 288 290 296 297 301 309 309 312 306 301 297 293 304 309 312 312 301 312
304 305 306 306 306 306 308 308 307 305 306 305 304 308 300 292 297 297 291 290 294 296 294 297 298 299 302 293 288 290 292 300 294 296 298 302 305 301 298 299 302 309 312 313 300 304 315
304 305 305 306 306 307 307 308 307 306 306 306 305 310 302 295 297 298 297 293 294 295 292 298 297 298 298 292 289 289 292 298 297 301 300 298 300 300 301 297 296 313 312 305 313 316 317
304 304 305 305 306 306 307 307 307 306 306 306 302 310 309 297 296 303 303 302 301 297 294 299 298 297 298 295 294 294 291 294 296 293 305 299 304 302 304 303 315 316 315 320 320 318 318
Wind_Speed
13 13 13 13 13 11 11 11 12 11 10 10 11 13 14 14 15 17 17 17 18 17 17 16 17 16 12 12 18 7 10 11 9 18 25 26 26 25 26 24 22 18 18 21 21 16 15
15 14 14 13 12 10 11 11 11 12 11 10 10 11 11 12 13 14 14 14 15 16 17 16 15 14 8 21 12 17 14 13 12 17 20 23 22 22 24 24 21 21 25 20 17 17 16
17 17 17 17 14 12 12 12 13 12 12 13 13 12 12 12 13 15 15 15 16 16 18 16 14 10 16 25 9 9 11 16 17 17 17 21 24 22 21 24 21 21 19 20 18 18 16
16 16 17 17 17 17 18 16 15 15 13 13 14 12 13 13 12 14 16 18 20 21 21 19 13 13 15 17 20 26 20 12 10 13 23 20 22 28 24 18 22 20 23 19 22 23 13
16 16 15 15 16 16 16 16 17 16 15 14 14 12 13 14 15 14 17 20 25 24 15 8 11 14 21 7 27 27 23 25 23 17 17 16 16 25 24 20 20 19 18 22 19 11 13
17 17 16 16 16 14 15 16 16 17 17 15 13 14 14 15 16 15 16 23 21 9 11 11 13 7 18 20 18 17 22 25 19 20 18 18 15 19 20 20 21 20 23 20 16 14 11
18 18 19 19 18 16 16 16 16 16 17 17 15 13 11 14 15 13 16 14 7 10 21 17 15 18 6 13 10 10 16 19 21 22 24 24 19 25 31 28 24 22 20 16 12 6 14
19 19 19 19 19 19 19 18 17 16 16 16 16 16 13 11 14 13 14 13 7 7 11 28 29 27 23 6 9 18 16 19 23 26 26 23 27 27 27 28 28 25 20 19 15 14 10
22 22 21 21 20 18 19 18 18 17 16 15 14 14 15 12 13 12 17 18 6 7 11 20 29 31 28 25 23 18 25 23 25 29 30 30 25 27 26 27 26 23 20 17 17 16 11
21 22 22 21 20 20 21 20 19 18 17 15 14 13 13 11 7 13 15 11 9 4 10 19 18 26 31 25 31 27 24 26 23 30 28 28 28 26 27 26 25 22 18 19 16 15 13
23 22 21 21 20 20 20 20 20 19 16 15 15 14 13 9 13 12 10 5 6 6 11 8 28 10 20 33 8 29 31 26 29 23 27 29 27 29 25 28 25 19 17 16 13 15 18
25 25 24 24 24 23 22 21 21 19 16 16 15 14 11 10 12 15 16 4 8 12 15 9 13 17 21 32 33 10 35 27 23 27 27 30 27 24 26 21 17 20 16 15 10 11 16
25 25 25 25 25 24 22 22 21 20 17 15 17 14 12 11 10 8 11 8 11 17 15 14 18 18 25 23 33 27 32 32 28 28 29 27 32 26 18 22 22 16 13 11 13 14 14
24 23 24 25 25 26 25 24 21 19 17 15 15 11 13 12 12 7 7 13 18 22 33 6 21 21 28 24 32 31 29 30 33 29 16 23 28 29 20 25 22 21 20 12 15 13 13
24 24 24 25 25 26 24 23 22 18 16 13 11 8 12 11 14 6 6 16 23 24 22 33 14 18 26 28 18 31 30 33 34 33 27 24 27 25 25 23 25 18 22 20 20 17 12
25 25 26 25 25 26 24 23 22 17 13 10 3 5 12 13 14 8 6 24 29 27 27 23 33 20 22 28 24 34 30 32 34 35 27 16 19 23 27 20 27 23 19 19 14 17 16
23 25 25 26 26 26 24 22 20 14 10 7 3 4 9 14 7 5 9 21 30 31 32 18 23 20 26 27 28 24 28 18 35 35 32 28 18 22 26 25 26 21 21 15 15 13 11
23 24 25 27 27 25 22 20 19 16 7 10 3 4 9 13 7 3 14 29 26 32 27 18 21 23 27 25 24 29 31 30 27 32 37 32 13 18 28 25 24 26 26 22 11 17 12
23 25 25 27 26 25 20 18 16 6 10 5 4 4 2 9 8 13 19 28 28 27 29 26 20 18 25 25 23 27 30 29 19 31 35 27 17 18 23 21 24 25 23 21 18 14 14
23 24 26 26 25 24 17 16 9 11 5 3 2 2 3 3 3 11 16 21 21 21 30 21 29 18 23 24 24 19 27 27 24 21 25 22 20 26 20 23 21 25 25 25 22 17 16
24 25 25 26 25 23 19 16 4 10 7 5 3 4 2 4 10 14 16 16 20 22 20 23 23 26 25 23 19 23 21 26 20 17 20 26 25 25 25 19 25 23 26 27 27 22 21
24 25 26 26 25 23 20 11 6 12 9 9 2 4 2 11 10 9 11 15 18 20 7 18 24 23 21 19 18 19 17 17 23 21 24 22 24 23 26 25 24 27 25 25 26 25 23
24 25 26 25 25 24 17 11 9 10 16 5 2 2 4 4 6 5 8 7 10 15 17 19 23 23 24 23 17 29 21 22 25 23 23 24 20 23 22 24 26 24 27 27 24 23 22
24 25 26 26 26 23 13 8 9 7 17 0 3 2 3 7 6 10 12 13 13 14 17 15 24 24 20 18 23 25 24 21 19 15 21 24 23 16 20 22 29 19 21 22 24 22 21
24 25 25 26 27 17 15 9 4 4 15 5 2 2 3 7 10 12 9 9 12 9 18 19 20 13 25 14 13 18 14 16 19 17 20 23 19 15 16 18 15 25 15 24 20 21 21
24 25 24 24 24 23 18 13 8 8 10 7 5 4 3 5 5 8 11 13 12 14 15 16 17 12 8 7 2 6 14 15 18 18 16 18 19 14 15 16 26 18 22 14 21 20 21
23 24 23 23 23 24 23 17 12 6 9 7 4 9 5 6 10 7 6 4 9 11 10 9 14 15 11 6 4 8 13 18 19 26 22 17 18 21 15 14 15 22 16 15 21 13 20
21 21 22 22 23 24 23 23 9 7 8 8 4 5 4 4 13 14 4 5 7 4 5 8 10 13 12 11 7 4 9 13 19 24 27 20 19 16 18 18 17 20 19 22 10 2 14
20 20 21 21 21 22 22 19 13 6 3 7 5 2 4 4 10 18 19 12 13 13 6 7 5 5 7 11 7 5 8 6 12 10 18 22 19 15 17 11 7 12 12 17 9 9 8
Wind_Direction
349 348 343 346 342 328 310 292 284 273 275 295 304 315 322 323 323 326 329 328 322 317 317 318 311 313 306 238 246 258 140 110 187 211 225 228 222 223 228 237 246 234 252 253 260 258 261
355 349 343 342 336 331 328 315 303 288 272 269 269 278 292 302 308 312 312 309 302 301 304 308 302 307 240 259 258 251 196 175 194 207 223 238 230 227 240 242 243 234 236 251 258 253 256
352 356 357 353 341 330 323 321 321 323 300 278 271 267 271 283 297 303 299 298 293 290 292 281 272 264 259 243 289 239 223 236 230 229 236 230 243 238 238 249 246 254 255 258 255 254 251
349 345 342 338 337 343 344 330 324 319 316 309 278 273 278 280 282 291 297 301 294 292 290 276 251 243 258 257 236 248 253 232 237 249 224 242 224 248 242 247 255 246 243 254 249 226 223
349 344 341 338 334 330 328 330 333 322 320 315 311 294 279 283 289 296 300 299 294 293 283 235 207 226 258 223 225 238 233 236 233 237 226 236 243 228 238 244 240 225 245 242 248 179 222
341 339 339 337 333 327 326 323 319 320 321 307 305 306 293 281 287 294 299 286 281 280 224 205 258 226 243 241 235 234 227 232 218 212 223 220 226 221 227 225 229 226 231 230 251 215 193
336 331 328 325 322 321 318 316 314 313 311 320 303 294 296 292 285 288 300 296 211 198 214 211 192 218 268 206 216 217 220 204 211 223 210 208 216 209 213 222 228 248 263 271 276 280 250
343 338 333 328 323 318 312 309 307 305 306 303 315 307 301 303 291 284 281 258 345 342 274 229 253 235 248 250 245 215 179 200 201 210 202 206 222 218 218 223 232 244 255 261 260 270 273
343 340 335 331 325 317 312 303 296 297 298 299 298 307 300 300 297 262 252 259 338 299 257 246 231 233 225 235 234 234 203 201 201 212 204 218 212 221 222 225 226 229 243 251 260 275 256
342 339 336 331 326 320 315 312 304 291 287 290 292 293 297 303 262 251 248 236 233 274 268 251 208 234 220 214 236 225 212 210 226 214 214 220 227 213 223 223 226 234 226 247 267 273 264
341 338 333 328 323 321 317 312 306 299 282 273 280 286 292 265 317 283 54 274 292 235 259 237 200 162 197 198 158 202 222 204 220 205 213 220 220 221 212 225 223 236 241 248 232 253 269
340 338 333 329 324 320 317 311 305 298 281 262 263 272 281 243 246 263 297 294 251 227 230 229 141 185 188 200 216 212 196 212 222 230 223 232 214 224 225 213 219 233 227 252 263 256 255
335 333 329 326 322 319 314 311 307 295 282 274 253 256 257 266 257 232 301 237 212 227 211 225 181 188 198 191 201 221 186 198 206 208 217 215 228 211 210 209 216 212 212 222 225 229 247
332 328 326 325 323 320 316 313 308 300 286 264 249 242 233 245 252 261 278 218 234 218 227 230 180 197 206 187 202 212 186 201 208 208 200 209 210 211 193 212 203 199 212 226 214 232 248
330 328 328 327 322 321 317 311 305 295 282 257 251 231 240 218 241 183 240 226 220 234 213 249 194 203 209 196 193 205 204 206 201 205 225 203 216 204 200 204 221 187 216 225 260 287 291
330 329 329 326 324 322 319 315 312 296 275 265 222 216 243 208 215 194 237 237 240 257 278 264 238 234 213 209 208 197 196 210 211 211 218 207 212 218 190 203 220 212 199 218 228 248 261
329 329 328 326 325 323 320 318 315 302 267 259 217 180 226 184 152 194 219 232 237 263 276 318 317 284 242 215 203 203 209 202 206 202 218 233 213 196 187 196 204 204 226 205 247 223 235
330 329 327 327 325 323 320 318 316 306 267 136 152 209 151 123 186 192 229 228 248 258 256 290 301 293 281 264 220 218 214 210 195 207 205 217 215 227 201 195 213 212 211 208 215 221 252
331 330 329 328 328 329 322 325 324 124 141 146 228 207 111 175 216 225 242 244 243 267 263 265 271 297 304 300 285 224 231 224 186 201 200 203 209 219 193 203 200 224 210 215 223 244 230
334 332 331 331 332 334 332 330 328 157 74 59 30 254 184 212 221 265 278 258 247 248 252 266 279 277 285 279 269 268 215 229 229 198 200 202 210 213 210 200 189 208 222 205 218 216 231
339 335 333 334 333 332 328 330 166 177 193 259 244 261 286 224 230 239 253 287 282 248 245 262 247 260 267 273 261 250 234 220 204 205 201 193 218 210 229 206 197 205 213 218 214 217 223
340 337 336 334 330 332 323 323 323 196 210 251 299 277 279 286 252 261 247 253 259 274 223 250 245 250 275 290 307 294 294 248 203 206 201 188 215 216 218 228 205 204 211 221 223 220 223
341 340 338 337 336 337 331 315 312 203 205 222 226 143 286 238 300 274 250 253 297 287 263 239 266 254 247 264 322 299 312 298 296 202 190 186 204 212 223 214 228 219 207 213 221 224 222
343 343 342 339 339 339 344 338 330 244 203 330 285 252 251 271 226 235 251 271 271 272 288 244 250 248 257 270 280 287 271 266 264 247 197 190 204 197 211 216 215 225 214 219 218 220 217
346 345 343 345 348 4 357 352 353 158 201 250 312 307 265 282 303 280 287 268 268 267 269 257 239 269 326 233 273 268 247 234 230 222 207 190 194 208 211 209 216 217 223 215 215 220 211
347 346 346 348 352 353 346 342 331 242 218 237 246 222 273 286 291 312 303 303 291 270 243 244 233 238 315 190 263 256 227 207 194 197 199 210 204 224 205 209 213 210 199 225 207 225 208
346 345 345 344 348 349 351 344 332 281 226 229 263 237 259 287 293 318 304 306 305 302 287 282 233 205 200 193 177 270 242 228 200 194 188 197 202 209 213 217 218 206 165 187 212 227 209
342 342 342 342 344 348 344 338 334 315 232 224 271 261 253 264 285 273 207 238 285 283 293 321 189 205 222 178 184 210 277 240 240 202 184 198 201 204 211 200 214 200 173 185 210 247 181
339 339 339 339 342 345 346 353 352 344 241 223 286 277 244 238 285 294 283 256 231 244 264 311 300 303 265 211 175 135 250 315 316 255 202 205 206 205 212 203 206 201 212 160 180 158 160